{"data":{"norad_id":54077,"intl_designator":"2022-136AC","name":"STARLINK-5171","alt_names":[],"object_type":"PAYLOAD","status":"ACTIVE","operator":null,"country":"US","launch_date":"2022-10-20","launch_site_code":"AFETR","launch_vehicle":null,"mission":null,"orbit_class":"UNKNOWN","rcs_meters":null,"size_class":null,"mass_kg":null,"dimensions":null,"purposes":["comms"],"wikipedia_slug":null,"has_3d_model":false,"image_url":null,"decayed_at":null,"tle_current":{"epoch":"2026-09-19T11:35:00.769056Z","epoch_age_seconds":174358,"freshness":"STALE","line1":"1 54077U 22136AC  26262.48264779  .00000421  00000+0  44575-4 0  9997","line2":"2 54077  53.1595 169.1288 0001375  92.5330 267.5819 15.08832526216441","mean_motion":15.08832526,"eccentricity":0.0001375,"inclination_deg":53.1595,"raan_deg":169.1288,"arg_perigee_deg":92.533,"mean_anomaly_deg":267.5819,"bstar":4.4575e-5,"rev_number":21644,"period_min":95.438027427572,"perigee_km":538.8150223917,"apogee_km":540.71744578107,"semimajor_km":6917.9032340864,"source":"CELESTRAK","updated_at":"2026-09-21T09:00:33.080744Z"}}}